Weather in Tournai

Belgium     50°36′19″N   3°23′17″E
temp.,
°C
wind,
m/s
gust,
m/s
humid.,
%
clouds,
%
prec.,
mm/h
press.,
hPa
HPBL,
m
27 january, thu
thu2701:00+6wsw6974100 0.0 1031507
04:00+5sw51181100 0.0 1029309
07:00+4sw51295100 0.0 1028312
10:00+7wsw61488100 0.0 1027655
13:00+8w71390100 0.1 1027613
16:00+8w51192100 0.0 1027599
19:00+8nw5117929 0.3 1028476
22:00+5wnw49875 0.0 1031199
28 january, fri
fri2801:00+4nw379288 0.0 1033128
04:00+3nw339297 0.0 103439
07:00+3nw2292100 0.0 103617
10:00+4w229075 0.0 103882
13:00+8wsw34705 0.0 1037576
16:00+7sw3670100 0.0 1036245
19:00+5sw498773 0.0 1035168
22:00+4sw5129284 0.0 1034300
29 january, sat
sat2901:00+6sw5118283 0.0 1032375
04:00+6sw5128836 0.0 1031400
07:00+8wsw61293100 0.1 1029714
10:00+9wsw61291100 0.1 1029792
13:00+10wsw7138485 0.2 1027867
16:00+11w91582100 0.0 1026879
19:00+10w81582100 0.0 10261215
22:00+9nw812735 0.1 10291011
30 january, sun
sun3001:00+5nw510735 0.2 1031408
04:00+3wnw35825 0.0 103297
07:00+2wnw33855 0.0 103336
10:00+3wnw23805 0.0 1035130
13:00+7nnw346326 0.0 10351104
16:00+6n346142 0.0 10341071
19:00+3n226917 0.0 103316
22:00+2wsw117343 0.0 103110
31 january, mon
mon3101:00+1sw2379100 0.0 103044
04:00+1ssw3684100 0.0 1026140
07:00+1sw3790100 0.1 1024259
10:00+2ssw4691100 0.1 1022258
13:00+4sw4486100 0.2 1022588
16:00+2w3599100 0.9 1022298
19:00+3nnw4988100 1.1 1024600
22:00+4nw41086100 0.1 1025633